[[{"header":{"parameterUnit":"m.s-1","parameterCategory":1,"la1":30.2991,"la2":30.254,"lo1":-89.0895,"lo2":-89.0444,"dy":0.0017,"dx":0.0017,"nx":28,"ny":28,"refTime":"2025-07-05T03:00:00:Z","depth":0,"parameterNumber":2,"parameterNumberName":"U-component_of_WINDS"},"data":[0,0,0,0,0,0,0,0,0,0,0,0,0,0,0,0,0,0,0,0,0,0,0,0,0,0,0,0,0,0,0,0,0,0,0,0,0,0,0,0,0,0,0,0,0,0,0,0,0,0,0,0,0,0,0,0,0,0,-0.1002,-0.1002,0,-0.0996,-0.0996,-0.0996,-0.1021,-0.1021,-0.1022,-0.1023,-0.1017,-0.1016,-0.1015,0,0,0,0,0,0,0,0,0,0,0,0,0,-0.1035,-0.1034,-0.1002,-0.1002,-0.1002,-0.0996,-0.0996,-0.0996,-0.102,-0.1021,-0.1022,-0.1023,-0.1017,-0.1016,-0.1015,0,0,0,0,0,0,0,0,0,0,0,0,0,-0.1024,-0.1034,-0.1002,-0.1014,-0.1015,-0.0996,-0.0996,-0.0996,-0.102,-0.1021,-0.1022,-0.1024,-0.1017,-0.1016,-0.1015,-0.0985,0,0,-0.1011,-0.1011,0,0,0,0,0,0,0,0,-0.1024,-0.1023,-0.1012,-0.1013,-0.1014,-0.101,-0.1005,-0.0992,-0.102,-0.1018,-0.1023,-0.1024,-0.1014,-0.1013,-0.1009,-0.0985,-0.0985,-0.1011,-0.101,-0.101,-0.1009,0,0,0,0,0,0,0,-0.1025,-0.1023,-0.1,-0.1012,-0.1013,-0.1019,-0.1019,-0.1003,-0.101,-0.1018,-0.102,-0.1019,-0.1014,-0.101,-0.1009,-0.0985,-0.1011,-0.101,-0.1009,-0.1009,-0.0936,-0.0934,0,0,0,0,0,0,-0.1024,-0.1024,-0.1,-0.1,-0.1022,-0.1017,-0.1017,-0.101,-0.101,-0.1011,-0.1018,-0.102,-0.1012,-0.1011,-0.1009,-0.0975,-0.101,-0.1009,-0.1008,-0.0937,-0.0935,-0.0934,0,0,0,0,0,0,-0.1025,-0.1022,-0.1,-0.1012,-0.101,-0.1016,-0.1008,-0.101,-0.1006,-0.101,-0.1011,-0.1013,-0.1013,-0.1011,-0.0991,-0.0975,-0.1008,-0.1007,-0.0938,-0.0936,-0.0935,-0.0905,0,0,0,0,0,0,-0.1026,-0.1022,-0.1011,-0.1012,-0.1009,-0.0982,-0.1007,-0.1009,-0.1003,-0.1006,-0.1005,-0.1006,-0.1014,-0.0993,-0.099,-0.0974,-0.1006,-0.094,-0.0937,-0.0935,-0.0908,-0.0903,-0.0898,0,0,0,0,0,-0.1027,-0.1003,-0.1011,-0.1008,-0.0995,-0.0981,-0.098,-0.0989,-0.1002,-0.0991,-0.0993,-0.1006,-0.0977,-0.099,-0.0987,-0.0971,-0.0941,-0.0938,-0.0935,-0.091,-0.0903,-0.0898,0,0,0,0,0,0,-0.1001,-0.1004,-0.1012,-0.0987,-0.0984,-0.0985,-0.0972,-0.0982,-0.0974,-0.0977,-0.0989,-0.0988,-0.0966,-0.0966,-0.0982,-0.0942,-0.0961,-0.0958,-0.0943,-0.0937,-0.0932,-0.0933,-0.1005,0,0,0,0,0,-0.0993,-0.0981,-0.0984,-0.0962,-0.096,-0.0966,-0.096,-0.0967,-0.0964,-0.0963,-0.0964,-0.096,-0.095,-0.0943,-0.0934,-0.0907,-0.0908,-0.0894,-0.0889,-0.0886,-0.0883,-0.0868,-0.0862,-0.0925,-0.0925,-0.0925,0,0,-0.0975,-0.0975,-0.0967,-0.0957,-0.0955,-0.0942,-0.0964,-0.095,-0.0941,-0.096,-0.0942,-0.0942,-0.0939,-0.0915,-0.0905,-0.0915,-0.0865,-0.0882,-0.0879,-0.0878,-0.0865,-0.0859,-0.0854,-0.0923,-0.0924,-0.0924,0,0,-0.0936,-0.0935,-0.0917,-0.0914,-0.0911,-0.0915,-0.091,-0.091,-0.0911,-0.0892,-0.0906,-0.0895,-0.0878,-0.0875,-0.0871,-0.083,-0.0842,-0.0827,-0.0803,-0.0789,-0.0784,-0.0779,-0.0765,-0.076,-0.0824,-0.0824,-0.0824,0,-0.0915,-0.0897,-0.0906,-0.0891,-0.0886,-0.0902,-0.0884,-0.0881,-0.0874,-0.0871,-0.0882,-0.086,-0.0859,-0.0834,-0.0824,-0.082,-0.0816,-0.0828,-0.0784,-0.0779,-0.0776,-0.0762,-0.0757,-0.0822,-0.0822,-0.0823,-0.0823,0,-0.0871,-0.0858,-0.0843,-0.0837,-0.083,-0.0813,-0.082,-0.0812,-0.0819,-0.0822,-0.0802,-0.0801,-0.0792,-0.0787,-0.0794,-0.0763,-0.077,-0.0782,-0.0802,-0.0768,-0.0755,-0.075,-0.082,-0.082,-0.0821,-0.0821,0,0,-0.0817,-0.0815,-0.081,-0.0807,-0.0803,-0.0794,-0.0777,-0.0768,-0.0761,-0.0756,-0.0743,-0.0727,-0.0738,-0.0734,-0.074,-0.0728,-0.0695,-0.0742,-0.0742,-0.0733,-0.0662,-0.0653,-0.0647,-0.0703,-0.0702,-0.0701,-0.0662,0,-0.078,-0.0752,-0.0759,-0.0731,-0.0719,-0.0734,-0.072,-0.0716,-0.0718,-0.0708,-0.071,-0.0699,-0.0714,-0.0712,-0.07,-0.0702,-0.0681,-0.0705,-0.0691,-0.069,-0.0692,-0.0641,-0.0632,-0.0595,-0.0657,-0.0657,-0.0656,0,-0.0733,-0.0725,-0.0696,-0.0695,-0.069,-0.0677,-0.0669,-0.0659,-0.0655,-0.0657,-0.0652,-0.0661,-0.0645,-0.0664,-0.0641,-0.0657,-0.0652,-0.0652,-0.065,-0.065,-0.0672,-0.0639,-0.0584,-0.0579,-0.0648,-0.0649,-0.065,0,-0.0697,-0.068,-0.066,-0.0657,-0.0654,-0.0645,-0.0643,-0.064,-0.0634,-0.0627,-0.0623,-0.0614,-0.0609,-0.0602,-0.0608,-0.0622,-0.0585,-0.0605,-0.0587,-0.0587,-0.0579,-0.058,-0.0523,-0.0574,-0.0574,-0.0575,-0.0575,0,-0.0655,-0.0637,-0.0644,-0.0632,-0.0612,-0.062,-0.06,-0.06,-0.0597,-0.0585,-0.0597,-0.0585,-0.0594,-0.0583,-0.0588,-0.0569,-0.0566,-0.0568,-0.057,-0.0567,-0.0567,-0.0565,-0.0568,-0.0573,-0.0573,-0.0574,-0.0574,0,-0.0612,-0.0616,-0.0596,-0.0595,-0.0594,-0.0579,-0.0578,-0.0567,-0.0569,-0.0554,-0.0551,-0.0555,-0.0543,-0.0548,-0.0535,-0.0538,-0.0514,-0.0518,-0.0515,-0.0517,-0.0499,-0.05,-0.0439,-0.0431,-0.0487,-0.0486,-0.0486,0,-0.0586,-0.0572,-0.0569,-0.0562,-0.0559,-0.0548,-0.0541,-0.0548,-0.0541,-0.0535,-0.0524,-0.0513,-0.0505,-0.0485,-0.0486,-0.0477,-0.0482,-0.046,-0.048,-0.0478,-0.0482,-0.0483,-0.0482,-0.0457,-0.0456,-0.0456,-0.0455,0,-0.0538,-0.054,-0.0531,-0.0521,-0.0513,-0.0506,-0.05,-0.0494,-0.05,-0.0492,-0.0479,-0.0473,-0.0459,-0.0448,-0.0439,-0.0438,-0.0448,-0.0449,-0.0444,-0.0442,-0.0441,-0.0442,-0.0505,-0.045,-0.0451,-0.0451,-0.0452,-0.0452,-0.0503,-0.0491,-0.0487,-0.0476,-0.0472,-0.0466,-0.0455,-0.0456,-0.0445,-0.0435,-0.044,-0.0425,-0.0421,-0.041,-0.0407,-0.0396,-0.0405,-0.0398,-0.0396,-0.0395,-0.0393,-0.0442,-0.0394,-0.0395,-0.0395,-0.0395,-0.0395,0,-0.0457,-0.0454,-0.0444,-0.0435,-0.0426,-0.0435,-0.0428,-0.042,-0.0407,-0.0402,-0.0394,-0.0379,-0.0368,-0.0368,-0.0358,-0.0349,-0.0353,-0.0346,-0.0348,-0.0347,-0.0385,-0.0391,-0.0343,-0.0343,-0.0343,-0.0343,-0.0343,-0.0343,-0.0432,-0.0412,-0.0414,-0.0393,-0.0391,-0.0377,-0.0372,-0.0366,-0.0363,-0.0346,-0.0337,-0.0337,-0.0334,-0.0323,-0.0313,-0.0314,-0.031,-0.0301,-0.0303,-0.0339,-0.0344,-0.0349,-0.0354,-0.03,-0.03,-0.0266,-0.0265,-0.0265]},{"header":{"parameterUnit":"m.s-1","parameterCategory":1,"la1":30.2991,"la2":30.254,"lo1":-89.0895,"lo2":-89.0444,"dy":0.0017,"dx":0.0017,"nx":28,"ny":28,"refTime":"2025-07-05T03:00:00:Z","depth":0,"parameterNumber":3,"parameterNumberName":"V-component_of_WINDS"},"data":[0,0,0,0,0,0,0,0,0,0,0,0,0,0,0,0,0,0,0,0,0,0,0,0,0,0,0,0,0,0,0,0,0,0,0,0,0,0,0,0,0,0,0,0,0,0,0,0,0,0,0,0,0,0,0,0,0,0,-2.8141,-2.8142,0,-2.8173,-2.8174,-2.8174,-2.8161,-2.816,-2.816,-2.8159,-2.8189,-2.819,-2.8192,0,0,0,0,0,0,0,0,0,0,0,0,0,-2.8067,-2.8069,-2.8141,-2.8142,-2.8142,-2.8173,-2.8174,-2.8174,-2.8161,-2.816,-2.8159,-2.8158,-2.8188,-2.819,-2.8192,0,0,0,0,0,0,0,0,0,0,0,0,0,-2.8099,-2.8069,-2.8141,-2.8139,-2.814,-2.8173,-2.8174,-2.8174,-2.8161,-2.816,-2.8159,-2.8158,-2.8188,-2.819,-2.8192,-2.8228,0,0,-2.8199,-2.82,0,0,0,0,0,0,0,0,-2.8097,-2.8102,-2.8139,-2.814,-2.814,-2.8162,-2.8159,-2.8192,-2.8162,-2.8153,-2.8159,-2.8157,-2.8181,-2.8183,-2.8192,-2.823,-2.8231,-2.8199,-2.82,-2.8201,-2.8202,0,0,0,0,0,0,0,-2.8095,-2.81,-2.8154,-2.814,-2.814,-2.8137,-2.814,-2.8165,-2.8173,-2.8154,-2.8153,-2.8157,-2.818,-2.819,-2.8192,-2.8232,-2.8199,-2.8201,-2.8202,-2.8203,-2.8304,-2.8305,0,0,0,0,0,0,-2.8093,-2.8099,-2.8153,-2.8155,-2.8116,-2.8139,-2.8143,-2.8156,-2.8172,-2.8174,-2.8158,-2.8156,-2.8186,-2.819,-2.8193,-2.8239,-2.8201,-2.8203,-2.8205,-2.8302,-2.8304,-2.8306,0,0,0,0,0,0,-2.8092,-2.8098,-2.8152,-2.8127,-2.8133,-2.8141,-2.8157,-2.8157,-2.8166,-2.8176,-2.8177,-2.8166,-2.8186,-2.819,-2.8221,-2.824,-2.8204,-2.8207,-2.8301,-2.8303,-2.8305,-2.833,0,0,0,0,0,0,-2.809,-2.8098,-2.8112,-2.8127,-2.8135,-2.8179,-2.8158,-2.8159,-2.8171,-2.8169,-2.8183,-2.8185,-2.8185,-2.8217,-2.8223,-2.8242,-2.8208,-2.8299,-2.8302,-2.8304,-2.8327,-2.8332,-2.8337,0,0,0,0,0,-2.8087,-2.8116,-2.8113,-2.8119,-2.8153,-2.818,-2.8184,-2.8185,-2.8172,-2.8187,-2.8193,-2.8184,-2.8237,-2.8221,-2.8227,-2.8247,-2.8298,-2.8301,-2.8304,-2.8325,-2.8331,-2.8337,0,0,0,0,0,0,-2.8101,-2.8118,-2.8114,-2.8149,-2.8164,-2.8178,-2.8196,-2.8191,-2.8208,-2.8205,-2.8205,-2.8208,-2.824,-2.8246,-2.8228,-2.8284,-2.8265,-2.827,-2.8279,-2.8285,-2.829,-2.8288,-2.821,0,0,0,0,0,-2.8109,-2.813,-2.8144,-2.8173,-2.8181,-2.8187,-2.8199,-2.8199,-2.8213,-2.8218,-2.8227,-2.824,-2.826,-2.8273,-2.8291,-2.8328,-2.8332,-2.8345,-2.835,-2.8354,-2.8358,-2.838,-2.8386,-2.8315,-2.8315,-2.8315,0,0,-2.8124,-2.8136,-2.8149,-2.8177,-2.8187,-2.821,-2.8192,-2.8216,-2.8233,-2.8221,-2.8252,-2.8258,-2.8273,-2.8308,-2.8323,-2.8314,-2.8378,-2.8357,-2.836,-2.8362,-2.8383,-2.839,-2.8396,-2.8317,-2.8317,-2.8317,0,0,-2.8163,-2.8174,-2.8201,-2.8213,-2.8231,-2.8235,-2.8242,-2.8257,-2.8262,-2.8293,-2.8286,-2.8305,-2.8338,-2.835,-2.8361,-2.8407,-2.8401,-2.8413,-2.8438,-2.846,-2.8465,-2.847,-2.8489,-2.8495,-2.8417,-2.8417,-2.8417,0,-2.818,-2.8214,-2.8215,-2.8241,-2.8254,-2.8247,-2.8275,-2.8286,-2.8308,-2.8317,-2.8306,-2.835,-2.8359,-2.8398,-2.841,-2.8417,-2.8426,-2.8412,-2.8465,-2.847,-2.8474,-2.8492,-2.8499,-2.8419,-2.8418,-2.8418,-2.8418,0,-2.8234,-2.8258,-2.8278,-2.8302,-2.8317,-2.8343,-2.8349,-2.8364,-2.8363,-2.8368,-2.84,-2.8412,-2.8434,-2.8442,-2.844,-2.8481,-2.8475,-2.8464,-2.8446,-2.8483,-2.8499,-2.8506,-2.8421,-2.842,-2.842,-2.8419,0,0,-2.8283,-2.8309,-2.8317,-2.8329,-2.8349,-2.8367,-2.8393,-2.8416,-2.843,-2.8446,-2.8469,-2.8498,-2.849,-2.8502,-2.8501,-2.852,-2.8559,-2.8507,-2.8507,-2.8518,-2.8606,-2.8616,-2.8623,-2.8554,-2.8555,-2.8556,-2.8606,0,-2.8325,-2.8374,-2.8377,-2.842,-2.8444,-2.8438,-2.8461,-2.8476,-2.8483,-2.8503,-2.8509,-2.8531,-2.8517,-2.8524,-2.8543,-2.855,-2.8577,-2.8546,-2.8576,-2.8577,-2.8574,-2.8632,-2.8641,-2.8687,-2.8612,-2.8613,-2.8614,0,-2.8381,-2.8402,-2.8448,-2.8467,-2.8477,-2.8498,-2.8521,-2.854,-2.8557,-2.856,-2.8575,-2.8572,-2.86,-2.858,-2.8618,-2.8598,-2.861,-2.8616,-2.8617,-2.8621,-2.8599,-2.8638,-2.8701,-2.8709,-2.8624,-2.8623,-2.8622,0,-2.8415,-2.8453,-2.8487,-2.8497,-2.8519,-2.8535,-2.8545,-2.8561,-2.8575,-2.8594,-2.8604,-2.8625,-2.8638,-2.8654,-2.8658,-2.8642,-2.8697,-2.8677,-2.8701,-2.8702,-2.8714,-2.8713,-2.8781,-2.8719,-2.8719,-2.8719,-2.8719,0,-2.8463,-2.8492,-2.8502,-2.8523,-2.8556,-2.8559,-2.8592,-2.86,-2.8615,-2.8638,-2.8633,-2.8654,-2.8657,-2.8678,-2.8681,-2.8714,-2.8719,-2.8722,-2.8723,-2.8724,-2.8724,-2.8733,-2.873,-2.8721,-2.872,-2.872,-2.872,0,-2.8505,-2.8514,-2.855,-2.857,-2.8575,-2.8599,-2.8615,-2.8635,-2.8642,-2.867,-2.8677,-2.8687,-2.8713,-2.8718,-2.8747,-2.8749,-2.8789,-2.8785,-2.8784,-2.8784,-2.8809,-2.8808,-2.8887,-2.8898,-2.8827,-2.8828,-2.8828,0,-2.8536,-2.8559,-2.8582,-2.8597,-2.8609,-2.8633,-2.8649,-2.8653,-2.867,-2.8692,-2.871,-2.8735,-2.8756,-2.8797,-2.8807,-2.883,-2.8828,-2.8854,-2.8831,-2.8832,-2.8831,-2.883,-2.8833,-2.8859,-2.8859,-2.886,-2.8861,0,-2.8591,-2.8594,-2.8617,-2.8643,-2.8662,-2.8682,-2.8701,-2.8713,-2.872,-2.8739,-2.8766,-2.8783,-2.8814,-2.884,-2.8864,-2.8873,-2.8869,-2.8868,-2.8875,-2.8877,-2.8876,-2.8879,-2.8798,-2.8866,-2.8865,-2.8865,-2.8865,-2.8865,-2.8629,-2.8651,-2.8671,-2.8698,-2.8713,-2.8731,-2.8752,-2.8762,-2.8785,-2.8813,-2.8814,-2.8844,-2.8862,-2.8893,-2.8905,-2.8928,-2.892,-2.893,-2.8933,-2.8936,-2.8939,-2.8871,-2.8932,-2.8932,-2.8932,-2.8932,-2.8932,0,-2.8685,-2.8699,-2.8723,-2.8751,-2.8773,-2.8768,-2.8789,-2.8807,-2.8834,-2.8852,-2.8874,-2.8906,-2.8931,-2.8944,-2.8969,-2.8986,-2.8984,-2.8992,-2.8992,-2.8995,-2.8944,-2.8936,-2.8993,-2.8993,-2.8993,-2.8993,-2.8993,-2.8993,-2.8717,-2.8753,-2.876,-2.8804,-2.8817,-2.8848,-2.8861,-2.8878,-2.8893,-2.893,-2.8952,-2.896,-2.8976,-2.9003,-2.9027,-2.903,-2.904,-2.9049,-2.9051,-2.9004,-2.8998,-2.8992,-2.8985,-2.9051,-2.9051,-2.91,-2.9101,-2.9101]}]]